Hourly Weather Roundup
Issued by NWS Central Illinois

Home | Current Version | Previous Version | Text Only | Print | Product List | Glossary On
Versions: 1 2 3 4 5 6 7 8 9 10 11 12 13 14 15 16 17 18 19 20 21 22 23 24 25 26 27 28 29 30 31 32 33 34 35 36 37 38 39 40 41 42 43 44 45 46 47 48 49 50
000
NZUS43 KILX 311410
HWRILX

AREA WEATHER ROUNDUP
NATIONAL WEATHER SERVICE, LINCOLN IL
900 AM CDT THU JUL 31 2014


CITY           SKY/WX    TMP DP  RH WIND       PRES   REMARKS
BLOOMINGTON    SUNNY     72  58  61 SW5       30.10S
CHAMPAIGN      SUNNY     68  64  87 SW3       30.10R
DECATUR        SUNNY     69  62  78 SW5       30.10S
FLORA          SUNNY     69  64  84 CALM      30.11R
GALESBURG      SUNNY     70  64  80 W3        30.09S
JACKSONVILLE   SUNNY     71  65  81 CALM      30.11R
LACON          SUNNY     67  62  81 SW5       30.07S
LAWRENCEVILLE  SUNNY     71  64  78 CALM      30.11R
LITCHFIELD     SUNNY     72  62  69 CALM      30.11R
$$


CITY           SKY/WX    TMP DP  RH WIND       PRES   REMARKS
LINCOLN        SUNNY     70  64  82 CALM      30.07S
MACOMB         SUNNY     69  64  84 CALM      30.12R
MATTOON        SUNNY     72  62  71 SW5       30.10R
MT CARMEL AP   SUNNY     72  64  78 CALM      30.10S
OLNEY-NOBLE AP SUNNY     68  64  88 CALM      30.11S
PARIS          SUNNY     69  64  83 W3        30.10S
PEORIA         SUNNY     72  61  68 CALM      30.09R
PONTIAC        SUNNY     70  63  78 CALM      30.08R
RANTOUL        SUNNY     72  61  68 W3        30.10R
ROBINSON       SUNNY     72  66  81 CALM      30.11S
SPRINGFIELD    SUNNY     70  62  76 SW3       30.10S
TAYLORVILLE    SUNNY     68  61  77 CALM      30.10S
$$

...REGIONAL REPORTS...


CITY           SKY/WX    TMP DP  RH WIND       PRES   REMARKS
CHICAGO O`HARE MOSUNNY   71  54  54 W9        30.03S
KANKAKEE       SUNNY     69  61  75 SW3       30.08R
MOLINE         SUNNY     69  61  75 W6        30.08R
MOUNT VERNON   SUNNY     70  63  78 S3        30.12R
PITTSFIELD     SUNNY     72  62  71 NW5       30.11S
QUINCY         SUNNY     70  64  81 N3        30.11R
ROCKFORD       SUNNY     70  60  70 CALM      30.06S
$$


CITY           SKY/WX    TMP DP  RH WIND       PRES   REMARKS
BURLINGTON     SUNNY     69  62  78 W3        30.09S
CEDAR RAPIDS   SUNNY     67  61  81 NW6       30.09R
DES MOINES     MOSUNNY   68  60  75 CALM      30.10S
KIRKSVILLE     SUNNY     72  63  73 CALM      30.13R
OTTUMWA        SUNNY     68  61  78 W5        30.09S
ST LOUIS       NOT AVBL
$$


CITY           SKY/WX    TMP DP  RH WIND       PRES   REMARKS
TERRE HAUTE    SUNNY     72  61  68 CALM      30.10R
EVANSVILLE     SUNNY     72  61  68 CALM      30.11S
INDIANAPOLIS   SUNNY     68  62  81 SW5       30.10R
LAFAYETTE      SUNNY     66  62  87 W3        30.08R
MADISON        SUNNY     71  60  68 VRB5      30.03R
MILWAUKEE      SUNNY     70  57  63 W7        30.01S
$$





USA.gov is the U.S. government's official web portal to all federal, state and local government web resources and services.